Location: Mount Kobau Star Party
(49.1167°N, 119.7333°W)
Time: 11:01:29
(UTC-07:00)

ARIANE 6 FM1 Upper Stage - Pass Details

Date: 18 April 2026
Orbit: 526 x 601 km, 62.0° (Epoch: 18 May)

Event Time Altitude Azimuth Distance (km) Brightness Sun altitude
Rises 22:33:19 0° 307° (NW) 2,691 7.5 -21.8°
Reaches altitude 10° 22:36:35 10° 335° (NNW) 1,787 6.3 -22.1°
Maximum altitude 22:38:35 13° 5° (N) 1,578 5.5 -22.3°
Drops below altitude 10° 22:40:35 10° 36° (NE) 1,777 5.4 -22.5°
Enters shadow 22:42:39 - 56° (ENE) 2,296 5.8 -22.7°
